EWG26K EDDH-LCLK

Flight info

Callsign EWG26K
Flight time 3h 34m
Altitude 35000
Route AMLUH2G AMLUH M852 DENIX DCT LARET DCT ARMUT DCT LAMSI DCT PETOV DCT AGLIB DCT PODOB/N0437F370 DCT MEDUX UM867 KOGAT DCT DISOR UL608 FSK UN128 IMR UN127 EXELA UM601 EVENO M601 BONEK
Aircraft A320/M-SDE2E3FGIJ1RWXY/HB1

Departure

Time 2026-04-21 15:55
Airport Hamburg Helmut Schmidt Airport (EDDH)

Arrival

Time 2026-04-21 19:30
Airport Larnaca International Airport (LCLK)
Time Latitude Longitude Altitude Speed Heading
2026-04-21 15:31 53.62809 10.00246 47 ft 0 kts 62°
2026-04-21 15:48 53.62807 10.00240 47 ft 3 kts 62°
2026-04-21 15:48 53.62794 10.00200 43 ft 4 kts 62°
2026-04-21 15:49 53.62784 10.00168 44 ft 4 kts 58°
2026-04-21 15:49 53.62769 10.00142 47 ft 4 kts 355°
2026-04-21 15:49 53.62747 10.00156 43 ft 3 kts 333°
2026-04-21 15:49 53.62744 10.00159 44 ft 0 kts 333°
2026-04-21 15:53 53.62778 10.00129 48 ft 7 kts 333°
2026-04-21 15:53 53.62816 10.00096 48 ft 5 kts 333°
2026-04-21 15:53 53.62845 10.00070 48 ft 4 kts 328°
2026-04-21 15:54 53.62858 10.00035 48 ft 6 kts 287°
2026-04-21 15:54 53.62836 9.99917 47 ft 15 kts 245°
2026-04-21 15:54 53.62849 9.99763 45 ft 13 kts 326°
2026-04-21 15:54 53.62915 9.99706 45 ft 15 kts 332°
2026-04-21 15:55 53.63212 9.99449 47 ft 83 kts 333°
2026-04-21 15:55 53.63902 9.98854 50 ft 138 kts 333°
2026-04-21 15:55 53.64877 9.97999 253 ft 163 kts 338°
2026-04-21 15:55 53.65872 9.97153 1004 ft 158 kts 340°
2026-04-21 15:56 53.66890 9.96304 1494 ft 171 kts 339°
2026-04-21 15:56 53.68002 9.95361 1875 ft 187 kts 339°
2026-04-21 15:56 53.69272 9.94591 2192 ft 202 kts
2026-04-21 15:56 53.70688 9.94759 2774 ft 207 kts
2026-04-21 15:57 53.72104 9.94988 3585 ft 205 kts 22°
2026-04-21 15:57 53.73191 9.96458 4182 ft 204 kts 64°
2026-04-21 15:57 53.73623 9.98730 4915 ft 205 kts 75°
2026-04-21 15:57 53.73988 10.01069 5659 ft 207 kts 75°
2026-04-21 15:58 53.74113 10.03500 6317 ft 214 kts 98°
2026-04-21 15:58 53.73524 10.05914 6814 ft 234 kts 118°
2026-04-21 15:58 53.72659 10.08362 7215 ft 253 kts 117°
2026-04-21 15:58 53.71752 10.11007 7774 ft 263 kts 117°
2026-04-21 15:59 53.71146 10.12781 8348 ft 264 kts 117°
2026-04-21 15:59 53.69922 10.16393 9467 ft 266 kts 116°
2026-04-21 15:59 53.68879 10.19018 10206 ft 276 kts 130°
2026-04-21 15:59 53.67301 10.20966 10851 ft 288 kts 150°
2026-04-21 16:00 53.65360 10.22081 11323 ft 307 kts 160°
2026-04-21 16:00 53.63221 10.23064 11492 ft 330 kts 161°
2026-04-21 16:00 53.60948 10.24087 11899 ft 343 kts 161°
2026-04-21 16:00 53.58624 10.25128 12577 ft 348 kts 161°
2026-04-21 16:01 53.56273 10.26178 13270 ft 352 kts 161°
2026-04-21 16:01 53.53892 10.27248 13984 ft 355 kts 161°
2026-04-21 16:01 53.51492 10.28334 14620 ft 359 kts 160°
2026-04-21 16:01 53.49072 10.29434 15252 ft 361 kts 160°
2026-04-21 16:02 53.47462 10.30165 15669 ft 363 kts 160°
2026-04-21 16:02 53.45017 10.31277 16280 ft 366 kts 160°
2026-04-21 16:02 53.42553 10.32403 16903 ft 369 kts 160°
2026-04-21 16:02 53.40068 10.33534 17520 ft 371 kts 160°
2026-04-21 16:03 53.37562 10.34667 18127 ft 374 kts 160°
2026-04-21 16:03 53.35040 10.35803 18718 ft 377 kts 160°
2026-04-21 16:03 53.32497 10.36945 19250 ft 380 kts 160°
2026-04-21 16:03 53.29936 10.38094 19794 ft 382 kts 160°
2026-04-21 16:04 53.27360 10.39248 20353 ft 384 kts 160°
2026-04-21 16:04 53.24773 10.40405 20906 ft 387 kts 160°
2026-04-21 16:04 53.22162 10.41572 21444 ft 389 kts 160°
2026-04-21 16:04 53.19539 10.42744 21981 ft 392 kts 160°
2026-04-21 16:05 53.16897 10.43919 22494 ft 394 kts 160°
2026-04-21 16:05 53.14237 10.45098 23010 ft 397 kts 160°
2026-04-21 16:05 53.11551 10.46239 23521 ft 400 kts 161°
2026-04-21 16:05 53.08822 10.47234 23990 ft 404 kts 163°
2026-04-21 16:06 53.06053 10.48128 24376 ft 407 kts 164°
2026-04-21 16:06 53.03260 10.48976 24776 ft 409 kts 164°
2026-04-21 16:06 53.00450 10.49818 25166 ft 411 kts 164°
2026-04-21 16:06 52.97627 10.50683 25547 ft 413 kts 163°
2026-04-21 16:07 52.93875 10.51875 26038 ft 416 kts 163°
2026-04-21 16:07 52.91955 10.52499 26286 ft 417 kts 163°
2026-04-21 16:07 52.89097 10.53435 26647 ft 419 kts 163°
2026-04-21 16:07 52.86269 10.54361 26990 ft 422 kts 163°
2026-04-21 16:08 52.80483 10.56254 27678 ft 426 kts 163°
2026-04-21 16:08 52.77570 10.57198 28018 ft 428 kts 163°
2026-04-21 16:08 52.74642 10.58144 28364 ft 430 kts 163°
2026-04-21 16:09 52.71695 10.59094 28682 ft 432 kts 163°
2026-04-21 16:09 52.68735 10.60045 28991 ft 435 kts 163°
2026-04-21 16:09 52.65759 10.61000 29262 ft 437 kts 163°
2026-04-21 16:09 52.62761 10.61960 29545 ft 440 kts 163°
2026-04-21 16:10 52.59754 10.62920 29826 ft 442 kts 163°
2026-04-21 16:10 52.56733 10.63888 30100 ft 443 kts 163°
2026-04-21 16:10 52.53695 10.64859 30361 ft 445 kts 163°
2026-04-21 16:10 52.50649 10.65833 30621 ft 446 kts 163°
2026-04-21 16:11 52.47597 10.66807 30876 ft 447 kts 163°
2026-04-21 16:11 52.44548 10.67776 31177 ft 446 kts 163°
2026-04-21 16:11 52.41501 10.68739 31469 ft 446 kts 163°
2026-04-21 16:11 52.38460 10.69699 31759 ft 445 kts 163°
2026-04-21 16:12 52.35416 10.70660 32038 ft 445 kts 163°
2026-04-21 16:12 52.32373 10.71624 32318 ft 445 kts 163°
2026-04-21 16:12 52.29333 10.72587 32596 ft 445 kts 163°
2026-04-21 16:12 52.26293 10.73548 32881 ft 445 kts 164°
2026-04-21 16:13 52.23250 10.74511 33130 ft 446 kts 164°
2026-04-21 16:13 52.20201 10.75473 33371 ft 447 kts 164°
2026-04-21 16:13 52.17148 10.76435 33624 ft 447 kts 164°
2026-04-21 16:13 52.14094 10.77396 33889 ft 447 kts 164°
2026-04-21 16:14 52.11045 10.78355 34167 ft 447 kts 164°
2026-04-21 16:14 52.07994 10.79314 34418 ft 447 kts 165°
2026-04-21 16:14 52.04943 10.80268 34641 ft 446 kts 165°
2026-04-21 16:14 52.01894 10.81216 34891 ft 446 kts 165°
2026-04-21 16:15 51.98842 10.82162 35133 ft 446 kts 165°
2026-04-21 16:15 51.95789 10.83109 35258 ft 449 kts 165°
2026-04-21 16:15 51.92712 10.84064 35289 ft 451 kts 165°
2026-04-21 16:16 51.86547 10.85981 35286 ft 451 kts 165°
2026-04-21 16:16 51.80616 10.88977 35286 ft 444 kts 152°
2026-04-21 16:17 51.74966 10.93075 35277 ft 446 kts 152°
2026-04-21 16:17 51.69282 10.97153 35277 ft 447 kts 153°
2026-04-21 16:18 51.63595 11.01230 35273 ft 448 kts 153°
2026-04-21 16:18 51.57901 11.05302 35277 ft 448 kts 153°
2026-04-21 16:19 51.52206 11.09362 35269 ft 448 kts 153°
2026-04-21 16:19 51.46509 11.13424 35271 ft 449 kts 153°
2026-04-21 16:20 51.40795 11.17487 35261 ft 450 kts 153°
2026-04-21 16:20 51.35069 11.21539 35256 ft 450 kts 153°
2026-04-21 16:21 51.29334 11.25572 35260 ft 450 kts 153°
2026-04-21 16:21 51.23594 11.29615 35258 ft 451 kts 154°
2026-04-21 16:22 51.17844 11.33648 35255 ft 452 kts 154°
2026-04-21 16:22 51.12078 11.37687 35253 ft 453 kts 154°
2026-04-21 16:23 51.06308 11.41720 35254 ft 453 kts 154°
2026-04-21 16:23 51.00535 11.45740 35260 ft 454 kts 154°
2026-04-21 16:24 50.94745 11.49754 35247 ft 454 kts 154°
2026-04-21 16:24 50.88945 11.53762 35246 ft 455 kts 154°
2026-04-21 16:25 50.83145 11.57768 35243 ft 455 kts 154°
2026-04-21 16:25 50.77380 11.61753 35243 ft 455 kts 154°
2026-04-21 16:26 50.71569 11.65748 35232 ft 456 kts 155°
2026-04-21 16:26 50.65732 11.69743 35223 ft 458 kts 155°
2026-04-21 16:27 50.59872 11.73736 35238 ft 460 kts 155°
2026-04-21 16:27 50.53999 11.77748 35224 ft 461 kts 155°
2026-04-21 16:28 50.48110 11.81753 35218 ft 461 kts 155°
2026-04-21 16:28 50.42213 11.85741 35221 ft 461 kts 155°
2026-04-21 16:29 50.36280 11.89749 35224 ft 461 kts 155°
2026-04-21 16:29 50.30429 11.93697 35222 ft 461 kts 155°
2026-04-21 16:30 50.24529 11.97653 35219 ft 461 kts 156°
2026-04-21 16:30 50.18634 12.01604 35226 ft 461 kts 156°
2026-04-21 16:31 50.12726 12.05550 35214 ft 462 kts 156°
2026-04-21 16:31 50.06818 12.09490 35206 ft 462 kts 156°
2026-04-21 16:32 50.00905 12.13435 35189 ft 462 kts 156°
2026-04-21 16:32 49.94978 12.17350 35176 ft 463 kts 156°
2026-04-21 16:33 49.89038 12.21267 35176 ft 464 kts 156°
2026-04-21 16:33 49.83091 12.25204 35173 ft 465 kts 156°
2026-04-21 16:34 49.77138 12.29119 35192 ft 465 kts 156°
2026-04-21 16:34 49.71342 12.33543 35176 ft 465 kts 145°
2026-04-21 16:35 49.66220 12.39640 35175 ft 465 kts 141°
2026-04-21 16:35 49.61126 12.45805 35176 ft 466 kts 141°
2026-04-21 16:36 49.56008 12.51940 35180 ft 466 kts 141°
2026-04-21 16:36 49.50887 12.58081 35183 ft 467 kts 141°
2026-04-21 16:37 49.45762 12.64212 35182 ft 468 kts 142°
2026-04-21 16:37 49.40618 12.70349 35178 ft 468 kts 142°
2026-04-21 16:38 49.35467 12.76472 35185 ft 469 kts 142°
2026-04-21 16:38 49.30310 12.82591 35188 ft 469 kts 142°
2026-04-21 16:39 49.25145 12.88709 35199 ft 469 kts 142°
2026-04-21 16:39 49.19973 12.94820 35181 ft 470 kts 142°
2026-04-21 16:40 49.14785 13.00933 35187 ft 471 kts 142°
2026-04-21 16:40 49.09584 13.07036 35187 ft 472 kts 142°
2026-04-21 16:41 49.05257 13.12097 35191 ft 472 kts 142°
2026-04-21 16:41 48.99161 13.19216 35191 ft 472 kts 142°
2026-04-21 16:42 48.93942 13.25295 35180 ft 473 kts 143°
2026-04-21 16:42 48.88711 13.31372 35191 ft 473 kts 143°
2026-04-21 16:43 48.83477 13.37437 35191 ft 473 kts 143°
2026-04-21 16:43 48.78238 13.43483 35193 ft 473 kts 143°
2026-04-21 16:44 48.72997 13.49519 35173 ft 473 kts 143°
2026-04-21 16:44 48.67754 13.55552 35176 ft 474 kts 143°
2026-04-21 16:45 48.62479 13.61527 35185 ft 474 kts 144°
2026-04-21 16:45 48.57109 13.67302 35187 ft 474 kts 146°
2026-04-21 16:46 48.51711 13.73009 35183 ft 474 kts 145°
2026-04-21 16:46 48.47233 13.77770 35176 ft 474 kts 146°
2026-04-21 16:47 48.41854 13.83509 35171 ft 474 kts 145°
2026-04-21 16:47 48.36476 13.89248 35189 ft 474 kts 145°
2026-04-21 16:48 48.31095 13.94973 35185 ft 474 kts 145°
2026-04-21 16:48 48.25710 14.00685 35185 ft 474 kts 146°
2026-04-21 16:49 48.20322 14.06379 35178 ft 474 kts 146°
2026-04-21 16:49 48.14927 14.12071 35182 ft 474 kts 146°
2026-04-21 16:50 48.09524 14.17763 35181 ft 475 kts 146°
2026-04-21 16:50 48.04116 14.23436 35192 ft 475 kts 146°
2026-04-21 16:51 47.98708 14.29092 35187 ft 475 kts 146°
2026-04-21 16:51 47.93292 14.34743 35185 ft 475 kts 146°
2026-04-21 16:52 47.87870 14.40376 35178 ft 475 kts 146°
2026-04-21 16:52 47.82454 14.46000 35177 ft 475 kts 146°
2026-04-21 16:53 47.77037 14.51621 35179 ft 475 kts 146°
2026-04-21 16:53 47.71617 14.57216 35147 ft 474 kts 147°
2026-04-21 16:54 47.66190 14.62797 35148 ft 475 kts 147°
2026-04-21 16:54 47.60756 14.68369 35137 ft 475 kts 147°
2026-04-21 16:55 47.55314 14.73946 35128 ft 475 kts 147°
2026-04-21 16:55 47.49872 14.79508 35120 ft 476 kts 147°
2026-04-21 16:56 47.44461 14.85023 35092 ft 476 kts 147°
2026-04-21 16:56 47.39002 14.90575 35080 ft 477 kts 147°
2026-04-21 16:57 47.33535 14.96131 35078 ft 477 kts 147°
2026-04-21 16:57 47.28059 15.01677 35086 ft 478 kts 147°
2026-04-21 16:58 47.22537 15.07245 35076 ft 478 kts 148°
2026-04-21 16:58 47.17050 15.12762 35074 ft 478 kts 148°
2026-04-21 16:59 47.11548 15.18283 35076 ft 479 kts 148°
2026-04-21 16:59 47.06042 15.23797 35071 ft 479 kts 148°
2026-04-21 17:00 47.00526 15.29300 35071 ft 480 kts 148°
2026-04-21 17:00 46.95940 15.33869 35055 ft 480 kts 148°
2026-04-21 17:01 46.89474 15.40304 35063 ft 481 kts 148°
2026-04-21 17:01 46.83927 15.45814 35067 ft 482 kts 148°
2026-04-21 17:02 46.78372 15.51311 35074 ft 483 kts 148°
2026-04-21 17:02 46.72848 15.56759 35058 ft 483 kts 149°
2026-04-21 17:03 46.67277 15.62232 35065 ft 483 kts 149°
2026-04-21 17:03 46.61698 15.67695 35071 ft 483 kts 149°
2026-04-21 17:04 46.56114 15.73159 35074 ft 484 kts 149°
2026-04-21 17:04 46.50533 15.78612 35078 ft 484 kts 149°
2026-04-21 17:05 46.44949 15.84053 35054 ft 484 kts 149°
2026-04-21 17:05 46.39357 15.89498 35064 ft 485 kts 149°
2026-04-21 17:06 46.33752 15.94928 35072 ft 485 kts 149°
2026-04-21 17:06 46.28151 16.00378 35077 ft 485 kts 148°
2026-04-21 17:07 46.22650 16.06038 35056 ft 486 kts 147°
2026-04-21 17:07 46.17170 16.11762 35066 ft 487 kts 148°
2026-04-21 17:08 46.11652 16.17424 35068 ft 487 kts 148°
2026-04-21 17:08 46.06116 16.23041 35072 ft 487 kts 148°
2026-04-21 17:09 45.97809 16.31458 35047 ft 487 kts 149°
2026-04-21 17:09 45.92257 16.37066 35055 ft 488 kts 149°
2026-04-21 17:10 45.86698 16.42670 35075 ft 488 kts 149°
2026-04-21 17:10 45.81139 16.48272 35074 ft 489 kts 149°
2026-04-21 17:11 45.75574 16.53876 35040 ft 489 kts 149°
2026-04-21 17:11 45.69999 16.59470 35044 ft 490 kts 149°
2026-04-21 17:12 45.64405 16.65054 35067 ft 491 kts 149°
2026-04-21 17:12 45.58797 16.70634 35069 ft 491 kts 149°
2026-04-21 17:13 45.53193 16.76213 35067 ft 491 kts 149°
2026-04-21 17:13 45.47583 16.81780 35069 ft 491 kts 149°
2026-04-21 17:14 45.41963 16.87322 35072 ft 491 kts 150°
2026-04-21 17:14 45.36342 16.92861 35075 ft 491 kts 150°
2026-04-21 17:15 45.30727 16.98406 35073 ft 492 kts 150°
2026-04-21 17:15 45.25136 17.03902 35041 ft 493 kts 151°
2026-04-21 17:16 45.19487 17.09433 35044 ft 494 kts 151°
2026-04-21 17:16 45.13838 17.14997 35068 ft 497 kts 147°
2026-04-21 17:17 45.08635 17.21530 35070 ft 501 kts 142°
2026-04-21 17:17 45.03485 17.28166 35028 ft 501 kts 143°
2026-04-21 17:18 44.98320 17.34795 35021 ft 502 kts 143°
2026-04-21 17:18 44.93131 17.41424 35033 ft 504 kts 143°
2026-04-21 17:19 44.87925 17.48051 35048 ft 504 kts 143°
2026-04-21 17:19 44.82722 17.54675 35055 ft 504 kts 143°
2026-04-21 17:20 44.77517 17.61302 35028 ft 505 kts 143°
2026-04-21 17:20 44.72297 17.67914 35040 ft 505 kts 143°
2026-04-21 17:21 44.67062 17.74519 35048 ft 506 kts 143°
2026-04-21 17:21 44.61828 17.81124 35049 ft 506 kts 143°
2026-04-21 17:22 44.56589 17.87716 35052 ft 506 kts 143°
2026-04-21 17:22 44.51341 17.94296 35046 ft 506 kts 143°
2026-04-21 17:23 44.46097 18.00855 35053 ft 505 kts 143°
2026-04-21 17:23 44.40883 18.07354 35059 ft 505 kts 143°
2026-04-21 17:24 44.35638 18.13885 35052 ft 505 kts 143°
2026-04-21 17:24 44.30391 18.20405 35048 ft 505 kts 143°
2026-04-21 17:25 44.25149 18.26906 35042 ft 504 kts 143°
2026-04-21 17:25 44.19917 18.33364 35036 ft 503 kts 143°
2026-04-21 17:26 44.14809 18.39649 35043 ft 503 kts 143°
2026-04-21 17:26 44.09569 18.46097 35030 ft 503 kts 143°
2026-04-21 17:27 44.04365 18.52484 34997 ft 502 kts 143°
2026-04-21 17:27 43.99124 18.58881 35014 ft 501 kts 143°
2026-04-21 17:28 43.93883 18.65256 35023 ft 501 kts 143°
2026-04-21 17:28 43.88654 18.71629 35020 ft 500 kts 143°
2026-04-21 17:29 43.83431 18.77988 35033 ft 499 kts 143°
2026-04-21 17:29 43.78213 18.84321 35020 ft 498 kts 143°
2026-04-21 17:30 43.72994 18.90624 35030 ft 498 kts 143°
2026-04-21 17:30 43.67777 18.96905 35027 ft 497 kts 143°
2026-04-21 17:31 43.62563 19.03182 35033 ft 497 kts 143°
2026-04-21 17:31 43.57353 19.09434 35030 ft 496 kts 143°
2026-04-21 17:32 43.52139 19.15658 35018 ft 495 kts 144°
2026-04-21 17:32 43.46860 19.21738 35033 ft 494 kts 145°
2026-04-21 17:33 43.41528 19.27699 35064 ft 493 kts 146°
2026-04-21 17:33 43.39766 19.29663 35214 ft 493 kts 145°
2026-04-21 17:33 43.37107 19.32644 35460 ft 493 kts 145°
2026-04-21 17:34 43.34460 19.35627 35706 ft 492 kts 145°
2026-04-21 17:34 43.31815 19.38616 35925 ft 492 kts 145°
2026-04-21 17:34 43.29177 19.41600 36177 ft 491 kts 144°
2026-04-21 17:34 43.26546 19.44576 36431 ft 490 kts 144°
2026-04-21 17:35 43.23918 19.47536 36693 ft 488 kts 145°
2026-04-21 17:35 43.21295 19.50483 36942 ft 488 kts 145°
2026-04-21 17:35 43.16021 19.56377 37027 ft 490 kts 145°
2026-04-21 17:36 43.10739 19.62274 37022 ft 490 kts 145°
2026-04-21 17:36 43.05458 19.68174 37026 ft 490 kts 145°
2026-04-21 17:37 43.00176 19.74065 37024 ft 490 kts 145°
2026-04-21 17:37 42.94888 19.79942 37022 ft 490 kts 145°
2026-04-21 17:38 42.89593 19.85807 37025 ft 490 kts 145°
2026-04-21 17:38 42.84289 19.91661 37016 ft 491 kts 145°
2026-04-21 17:39 42.78987 19.97521 37040 ft 491 kts 145°
2026-04-21 17:39 42.73869 20.03687 37039 ft 495 kts 134°
2026-04-21 17:40 42.69477 20.10921 37048 ft 496 kts 132°
2026-04-21 17:40 42.65089 20.18160 37044 ft 496 kts 132°
2026-04-21 17:41 42.60696 20.25377 37055 ft 496 kts 132°
2026-04-21 17:41 42.56305 20.32590 37052 ft 496 kts 132°
2026-04-21 17:42 42.51905 20.39799 37071 ft 496 kts 133°
2026-04-21 17:42 42.47500 20.46992 37075 ft 496 kts 133°
2026-04-21 17:43 42.43094 20.54170 37069 ft 496 kts 133°
2026-04-21 17:43 42.38684 20.61339 37070 ft 495 kts 133°
2026-04-21 17:44 42.34305 20.68449 37074 ft 495 kts 133°
2026-04-21 17:44 42.29885 20.75596 37041 ft 495 kts 133°
2026-04-21 17:45 42.25461 20.82733 37058 ft 496 kts 133°
2026-04-21 17:45 42.21034 20.89855 37058 ft 495 kts 133°
2026-04-21 17:46 42.16604 20.96963 37056 ft 495 kts 133°
2026-04-21 17:46 42.12172 21.04062 37057 ft 495 kts 132°
2026-04-21 17:47 42.08211 21.11678 37056 ft 497 kts 126°
2026-04-21 17:47 42.04380 21.19427 37058 ft 497 kts 126°
2026-04-21 17:48 42.00540 21.27162 37041 ft 497 kts 126°
2026-04-21 17:48 41.96715 21.34829 37050 ft 497 kts 126°
2026-04-21 17:49 41.92867 21.42538 37047 ft 497 kts 126°
2026-04-21 17:49 41.89015 21.50232 37049 ft 497 kts 126°
2026-04-21 17:50 41.85153 21.57915 37042 ft 496 kts 126°
2026-04-21 17:50 41.81295 21.65594 37041 ft 496 kts 126°
2026-04-21 17:51 41.77429 21.73255 37040 ft 496 kts 126°
2026-04-21 17:51 41.73548 21.80901 37032 ft 496 kts 126°
2026-04-21 17:52 41.69676 21.88534 37040 ft 496 kts 126°
2026-04-21 17:52 41.65803 21.96154 37034 ft 495 kts 126°
2026-04-21 17:53 41.61932 22.03758 37040 ft 494 kts 127°
2026-04-21 17:53 41.58061 22.11340 37033 ft 494 kts 126°
2026-04-21 17:54 41.54191 22.18905 37039 ft 493 kts 127°
2026-04-21 17:54 41.50315 22.26457 37025 ft 493 kts 127°
2026-04-21 17:55 41.46433 22.33994 37017 ft 493 kts 127°
2026-04-21 17:55 41.42549 22.41512 37008 ft 492 kts 127°
2026-04-21 17:56 41.38663 22.49026 37016 ft 492 kts 127°
2026-04-21 17:56 41.34770 22.56529 36985 ft 492 kts 127°
2026-04-21 17:57 41.30879 22.64013 36995 ft 492 kts 127°
2026-04-21 17:57 41.26986 22.71492 36990 ft 492 kts 127°
2026-04-21 17:58 41.22881 22.78727 36987 ft 489 kts 133°
2026-04-21 17:58 41.18480 22.85637 36989 ft 490 kts 133°
2026-04-21 17:59 41.14086 22.92546 36978 ft 490 kts 133°
2026-04-21 17:59 41.09699 22.99470 36972 ft 491 kts 132°
2026-04-21 18:00 41.05372 23.06464 36948 ft 491 kts 132°
2026-04-21 18:00 41.01010 23.13418 36951 ft 491 kts 133°
2026-04-21 18:01 40.96648 23.20367 36959 ft 491 kts 133°
2026-04-21 18:01 40.92319 23.27277 36962 ft 491 kts 133°
2026-04-21 18:02 40.87925 23.34267 36964 ft 491 kts 133°
2026-04-21 18:02 40.83585 23.41166 36964 ft 491 kts 133°
2026-04-21 18:03 40.79212 23.48092 36971 ft 491 kts 133°
2026-04-21 18:03 40.74833 23.55003 36943 ft 491 kts 133°
2026-04-21 18:04 40.70459 23.61898 36963 ft 490 kts 133°
2026-04-21 18:04 40.66087 23.68772 36963 ft 489 kts 133°
2026-04-21 18:05 40.61713 23.75634 36962 ft 489 kts 133°
2026-04-21 18:05 40.57345 23.82480 36967 ft 488 kts 133°
2026-04-21 18:06 40.52980 23.89313 36962 ft 488 kts 134°
2026-04-21 18:06 40.48607 23.96127 36960 ft 488 kts 134°
2026-04-21 18:07 40.44232 24.02933 36956 ft 487 kts 134°
2026-04-21 18:07 40.39853 24.09719 36956 ft 487 kts 134°
2026-04-21 18:08 40.35477 24.16495 36958 ft 487 kts 134°
2026-04-21 18:08 40.31103 24.23268 36965 ft 487 kts 134°
2026-04-21 18:09 40.26721 24.30028 36964 ft 487 kts 134°
2026-04-21 18:09 40.22334 24.36772 36969 ft 486 kts 134°
2026-04-21 18:10 40.17940 24.43501 36962 ft 486 kts 134°
2026-04-21 18:10 40.13543 24.50225 36962 ft 486 kts 134°
2026-04-21 18:11 40.09150 24.56951 36961 ft 486 kts 134°
2026-04-21 18:11 40.04751 24.63664 36964 ft 486 kts 134°
2026-04-21 18:12 40.00377 24.70317 36970 ft 486 kts 134°
2026-04-21 18:12 39.95974 24.77014 36977 ft 486 kts 134°
2026-04-21 18:13 39.91564 24.83698 36961 ft 486 kts 134°
2026-04-21 18:13 39.87145 24.90367 36962 ft 486 kts 134°
2026-04-21 18:14 39.80521 25.00364 36945 ft 486 kts 134°
2026-04-21 18:15 39.76100 25.07011 36952 ft 486 kts 135°
2026-04-21 18:15 39.71673 25.13642 36960 ft 486 kts 135°
2026-04-21 18:16 39.67243 25.20268 36965 ft 486 kts 135°
2026-04-21 18:16 39.62812 25.26892 36972 ft 486 kts 135°
2026-04-21 18:17 39.58381 25.33506 36979 ft 486 kts 135°
2026-04-21 18:17 39.53943 25.40106 36972 ft 486 kts 135°
2026-04-21 18:18 39.49502 25.46705 36954 ft 485 kts 135°
2026-04-21 18:18 39.45062 25.53285 36970 ft 485 kts 135°
2026-04-21 18:19 39.40619 25.59846 36974 ft 485 kts 135°
2026-04-21 18:19 39.36178 25.66399 36975 ft 484 kts 135°
2026-04-21 18:20 39.31732 25.72944 36970 ft 484 kts 135°
2026-04-21 18:20 39.27286 25.79478 36969 ft 485 kts 135°
2026-04-21 18:21 39.23587 25.84909 36969 ft 484 kts 135°
2026-04-21 18:21 39.18412 25.92487 36947 ft 484 kts 135°
2026-04-21 18:22 39.13950 25.98991 36955 ft 484 kts 135°
2026-04-21 18:22 39.09484 26.05487 36958 ft 485 kts 135°
2026-04-21 18:23 39.05766 26.10889 36964 ft 485 kts 135°
2026-04-21 18:23 39.01294 26.17387 36968 ft 485 kts 135°
2026-04-21 18:24 38.96818 26.23875 36968 ft 485 kts 135°
2026-04-21 18:24 38.92337 26.30354 36960 ft 485 kts 135°
2026-04-21 18:25 38.87844 26.36812 36942 ft 485 kts 135°
2026-04-21 18:25 38.83324 26.43238 36950 ft 483 kts 139°
2026-04-21 18:26 38.78327 26.48952 36962 ft 481 kts 143°
2026-04-21 18:26 38.73284 26.54596 36966 ft 481 kts 143°
2026-04-21 18:27 38.68242 26.60231 36963 ft 481 kts 143°
2026-04-21 18:27 38.63198 26.65858 36968 ft 481 kts 143°
2026-04-21 18:28 38.58157 26.71482 36948 ft 481 kts 143°
2026-04-21 18:28 38.53115 26.77091 36965 ft 481 kts 143°
2026-04-21 18:29 38.48101 26.82651 36970 ft 480 kts 143°
2026-04-21 18:29 38.43056 26.88235 36974 ft 480 kts 143°
2026-04-21 18:30 38.38006 26.93821 36982 ft 481 kts 143°
2026-04-21 18:30 38.32948 26.99397 36978 ft 481 kts 143°
2026-04-21 18:31 38.27896 27.04967 36958 ft 481 kts 143°
2026-04-21 18:31 38.22857 27.10561 36981 ft 481 kts 142°
2026-04-21 18:32 38.17827 27.16160 36983 ft 481 kts 142°
2026-04-21 18:32 38.12785 27.21742 36986 ft 481 kts 143°
2026-04-21 18:33 38.07737 27.27310 36989 ft 481 kts 143°
2026-04-21 18:33 38.02683 27.32872 36971 ft 481 kts 143°
2026-04-21 18:34 37.97635 27.38439 36972 ft 481 kts 143°
2026-04-21 18:34 37.92582 27.43992 36985 ft 481 kts 143°
2026-04-21 18:35 37.88346 27.48632 36988 ft 480 kts 143°
2026-04-21 18:35 37.82492 27.55100 36994 ft 481 kts 142°
2026-04-21 18:36 37.77475 27.60683 36998 ft 480 kts 142°
2026-04-21 18:36 37.72459 27.66259 36997 ft 480 kts 142°
2026-04-21 18:37 37.67435 27.71816 36979 ft 480 kts 142°
2026-04-21 18:37 37.62411 27.77361 36989 ft 480 kts 142°
2026-04-21 18:38 37.57378 27.82890 36994 ft 480 kts 142°
2026-04-21 18:38 37.52345 27.88416 37007 ft 480 kts 142°
2026-04-21 18:39 37.47314 27.93942 37011 ft 480 kts 142°
2026-04-21 18:39 37.42277 27.99451 37015 ft 480 kts 142°
2026-04-21 18:40 37.37245 28.04951 37009 ft 479 kts 142°
2026-04-21 18:40 37.33057 28.09517 37012 ft 479 kts 143°
2026-04-21 18:41 37.27161 28.15927 37013 ft 480 kts 143°
2026-04-21 18:41 37.22103 28.21390 37021 ft 480 kts 143°
2026-04-21 18:42 37.17041 28.26836 37026 ft 479 kts 143°
2026-04-21 18:42 37.11981 28.32287 37033 ft 480 kts 143°
2026-04-21 18:43 37.06936 28.37760 37035 ft 480 kts 143°
2026-04-21 18:43 37.01879 28.43208 37030 ft 480 kts 143°
2026-04-21 18:44 36.96800 28.48629 37027 ft 480 kts 143°
2026-04-21 18:44 36.91717 28.54041 37026 ft 480 kts 143°
2026-04-21 18:45 36.86630 28.59452 37026 ft 480 kts 143°
2026-04-21 18:45 36.81550 28.64866 37014 ft 481 kts 143°
2026-04-21 18:46 36.76460 28.70281 37023 ft 481 kts 143°
2026-04-21 18:46 36.71362 28.75678 37028 ft 481 kts 143°
2026-04-21 18:47 36.66267 28.81072 37032 ft 481 kts 143°
2026-04-21 18:47 36.61176 28.86483 37032 ft 481 kts 143°
2026-04-21 18:48 36.56088 28.91883 37015 ft 481 kts 143°
2026-04-21 18:48 36.51031 28.97241 36995 ft 481 kts 143°
2026-04-21 18:49 36.45942 29.02638 37012 ft 481 kts 143°
2026-04-21 18:49 36.41677 29.07147 37019 ft 481 kts 143°
2026-04-21 18:50 36.35755 29.13386 37029 ft 480 kts 143°
2026-04-21 18:50 36.30654 29.18745 37026 ft 480 kts 143°
2026-04-21 18:51 36.25551 29.24090 37019 ft 480 kts 143°
2026-04-21 18:51 36.20447 29.29434 37013 ft 480 kts 143°
2026-04-21 18:52 36.15343 29.34746 37022 ft 479 kts 144°
2026-04-21 18:52 36.10196 29.39976 37030 ft 479 kts 144°
2026-04-21 18:53 36.05033 29.45175 37031 ft 478 kts 144°
2026-04-21 18:53 35.99889 29.50390 37031 ft 479 kts 142°
2026-04-21 18:54 35.95585 29.56708 37032 ft 486 kts 122°
2026-04-21 18:54 35.92966 29.64393 37023 ft 488 kts 109°
2026-04-21 18:55 35.91197 29.70999 37021 ft 488 kts 109°
2026-04-21 18:55 35.88686 29.80288 37022 ft 488 kts 109°
2026-04-21 18:56 35.86532 29.88228 37021 ft 489 kts 109°
2026-04-21 18:56 35.84373 29.96175 37025 ft 489 kts 109°
2026-04-21 18:57 35.82229 30.04128 37026 ft 489 kts 108°
2026-04-21 18:57 35.80215 30.12133 37022 ft 489 kts 107°
2026-04-21 18:58 35.78245 30.20153 37025 ft 489 kts 108°
2026-04-21 18:58 35.76243 30.28162 37026 ft 489 kts 108°
2026-04-21 18:59 35.74213 30.36165 37028 ft 490 kts 108°
2026-04-21 18:59 35.72169 30.44158 37025 ft 490 kts 108°
2026-04-21 19:00 35.70124 30.52147 37028 ft 489 kts 108°
2026-04-21 19:00 35.68101 30.60082 37032 ft 489 kts 108°
2026-04-21 19:01 35.66057 30.68066 37040 ft 489 kts 108°
2026-04-21 19:01 35.63996 30.76042 37042 ft 489 kts 108°
2026-04-21 19:02 35.61925 30.84012 37041 ft 489 kts 108°
2026-04-21 19:02 35.59886 30.91987 37039 ft 489 kts 108°
2026-04-21 19:03 35.57881 30.99979 37032 ft 489 kts 108°
2026-04-21 19:03 35.55872 31.07957 37037 ft 489 kts 108°
2026-04-21 19:04 35.53842 31.15925 37039 ft 489 kts 108°
2026-04-21 19:04 35.51803 31.23887 37039 ft 489 kts 108°
2026-04-21 19:05 35.49764 31.31846 37038 ft 489 kts 108°
2026-04-21 19:05 35.47716 31.39802 37039 ft 489 kts 108°
2026-04-21 19:06 35.45660 31.47747 37037 ft 489 kts 109°
2026-04-21 19:06 35.43591 31.55747 37033 ft 489 kts 108°
2026-04-21 19:06 35.42564 31.59725 36858 ft 489 kts 108°
2026-04-21 19:07 35.41541 31.63694 36608 ft 488 kts 108°
2026-04-21 19:07 35.40515 31.67662 36346 ft 488 kts 108°
2026-04-21 19:07 35.39484 31.71627 36066 ft 488 kts 108°
2026-04-21 19:07 35.38444 31.75606 35169 ft 494 kts 108°
2026-04-21 19:08 35.37749 31.78267 34538 ft 497 kts 108°
2026-04-21 19:08 35.36688 31.82320 33500 ft 502 kts 108°
2026-04-21 19:08 35.35618 31.86401 32477 ft 504 kts 108°
2026-04-21 19:08 35.34546 31.90493 31474 ft 504 kts 108°
2026-04-21 19:09 35.33486 31.94538 30937 ft 495 kts 108°
2026-04-21 19:09 35.32438 31.98531 30254 ft 491 kts 108°
2026-04-21 19:09 35.31396 32.02490 29514 ft 486 kts 108°
2026-04-21 19:09 35.30366 32.06395 28927 ft 478 kts 108°
2026-04-21 19:10 35.29355 32.10237 28349 ft 471 kts 108°
2026-04-21 19:10 35.28362 32.14033 27754 ft 465 kts 108°
2026-04-21 19:10 35.27385 32.17780 27183 ft 460 kts 107°
2026-04-21 19:10 35.26420 32.21489 26615 ft 455 kts 107°
2026-04-21 19:11 35.25464 32.25158 26062 ft 450 kts 107°
2026-04-21 19:11 35.24513 32.28786 25511 ft 446 kts 108°
2026-04-21 19:11 35.23565 32.32361 25250 ft 435 kts 108°
2026-04-21 19:11 35.22633 32.35813 25086 ft 422 kts 108°
2026-04-21 19:12 35.21704 32.39207 24558 ft 420 kts 108°
2026-04-21 19:12 35.20773 32.42593 24034 ft 419 kts 108°
2026-04-21 19:12 35.19846 32.45963 23506 ft 418 kts 108°
2026-04-21 19:12 35.18924 32.49325 22971 ft 415 kts 108°
2026-04-21 19:13 35.18010 32.52659 22475 ft 412 kts 108°
2026-04-21 19:13 35.17104 32.55969 21994 ft 409 kts 108°
2026-04-21 19:13 35.16203 32.59251 21509 ft 406 kts 108°
2026-04-21 19:13 35.15317 32.62472 21019 ft 404 kts 108°
2026-04-21 19:14 35.14411 32.65762 20526 ft 402 kts 108°
2026-04-21 19:14 35.13532 32.68954 20014 ft 401 kts 108°
2026-04-21 19:14 35.12646 32.72177 19519 ft 400 kts 108°
2026-04-21 19:14 35.11747 32.75437 18974 ft 400 kts 108°
2026-04-21 19:15 35.10857 32.78651 18463 ft 399 kts 108°
2026-04-21 19:15 35.09966 32.81862 17887 ft 399 kts 108°
2026-04-21 19:15 35.09080 32.85056 17365 ft 396 kts 108°
2026-04-21 19:15 35.08209 32.88194 16852 ft 394 kts 108°
2026-04-21 19:16 35.07321 32.91391 16344 ft 392 kts 108°
2026-04-21 19:16 35.06447 32.94532 15830 ft 390 kts 108°
2026-04-21 19:16 35.05589 32.97615 15334 ft 388 kts 108°
2026-04-21 19:16 35.04711 33.00764 14818 ft 386 kts 109°
2026-04-21 19:17 35.02991 33.06925 13838 ft 382 kts 109°
2026-04-21 19:17 35.02138 33.09970 13376 ft 376 kts 109°
2026-04-21 19:17 35.01315 33.12909 12750 ft 364 kts 109°
2026-04-21 19:18 35.00505 33.15799 12274 ft 347 kts 109°
2026-04-21 19:18 34.99739 33.18527 11801 ft 333 kts 109°
2026-04-21 19:18 34.99013 33.21113 11356 ft 323 kts 109°
2026-04-21 19:18 34.98287 33.23704 10895 ft 323 kts 109°
2026-04-21 19:19 34.97558 33.26297 10397 ft 325 kts 109°
2026-04-21 19:19 34.96836 33.28859 10237 ft 313 kts 109°
2026-04-21 19:19 34.96137 33.31334 10029 ft 305 kts 109°
2026-04-21 19:19 34.95455 33.33747 9885 ft 299 kts 109°
2026-04-21 19:20 34.94769 33.36173 9760 ft 298 kts 109°
2026-04-21 19:20 34.94101 33.38531 9407 ft 298 kts 109°
2026-04-21 19:20 34.93416 33.40944 8960 ft 297 kts 109°
2026-04-21 19:20 34.92751 33.43292 8526 ft 297 kts 109°
2026-04-21 19:21 34.92083 33.45662 8092 ft 295 kts 109°
2026-04-21 19:21 34.91419 33.48014 7686 ft 293 kts 109°
2026-04-21 19:21 34.90755 33.50352 7291 ft 290 kts 109°
2026-04-21 19:21 34.90092 33.52675 6865 ft 289 kts 109°
2026-04-21 19:22 34.89433 33.54983 6428 ft 288 kts 109°
2026-04-21 19:22 34.88779 33.57276 5955 ft 287 kts 109°
2026-04-21 19:22 34.88133 33.59552 5561 ft 283 kts 108°
2026-04-21 19:22 34.87756 33.61892 5143 ft 280 kts 92°
2026-04-21 19:23 34.87935 33.64244 4689 ft 278 kts 75°
2026-04-21 19:23 34.88594 33.66442 4231 ft 276 kts 66°
2026-04-21 19:23 34.89326 33.68591 3810 ft 273 kts 67°
2026-04-21 19:23 34.90041 33.70699 3614 ft 262 kts 66°
2026-04-21 19:24 34.90713 33.72691 3542 ft 247 kts 66°
2026-04-21 19:24 34.91348 33.74575 3446 ft 234 kts 66°
2026-04-21 19:24 34.91957 33.76386 3337 ft 229 kts 67°
2026-04-21 19:24 34.92603 33.78121 3248 ft 219 kts 54°
2026-04-21 19:25 34.93699 33.79316 3075 ft 208 kts 22°
2026-04-21 19:25 34.95069 33.79646 2927 ft 199 kts 353°
2026-04-21 19:25 34.96354 33.79149 2810 ft 191 kts 326°
2026-04-21 19:25 34.97254 33.78048 2676 ft 180 kts 300°
2026-04-21 19:26 34.97640 33.76655 2536 ft 170 kts 275°
2026-04-21 19:26 34.97515 33.75269 2381 ft 163 kts 251°
2026-04-21 19:26 34.96942 33.74111 2224 ft 162 kts 227°
2026-04-21 19:26 34.96139 33.73124 2037 ft 165 kts 227°
2026-04-21 19:27 34.95329 33.72133 1841 ft 165 kts 227°
2026-04-21 19:27 34.94532 33.71156 1642 ft 164 kts 226°
2026-04-21 19:27 34.93742 33.70190 1426 ft 156 kts 227°
2026-04-21 19:27 34.93006 33.69289 1251 ft 146 kts 229°
2026-04-21 19:28 34.92286 33.68406 1093 ft 146 kts 226°
2026-04-21 19:28 34.91568 33.67526 921 ft 146 kts 226°
2026-04-21 19:28 34.90852 33.66649 741 ft 146 kts 226°
2026-04-21 19:28 34.90140 33.65775 548 ft 145 kts 225°
2026-04-21 19:29 34.89431 33.64908 364 ft 144 kts 226°
2026-04-21 19:29 34.88727 33.64047 186 ft 143 kts 225°
2026-04-21 19:29 34.88026 33.63192 26 ft 141 kts 225°
2026-04-21 19:29 34.87437 33.62466 15 ft 97 kts 225°
2026-04-21 19:30 34.87084 33.62035 22 ft 44 kts 225°
2026-04-21 19:30 34.86984 33.61843 23 ft 23 kts 253°
2026-04-21 19:30 34.86941 33.61665 21 ft 19 kts 254°
2026-04-21 19:30 34.86909 33.61527 19 ft 18 kts 254°
2026-04-21 19:31 34.86885 33.61386 18 ft 15 kts 294°
2026-04-21 19:31 34.86952 33.61301 20 ft 12 kts 315°
2026-04-21 19:31 34.87010 33.61230 20 ft 12 kts 314°
2026-04-21 19:31 34.87065 33.61163 20 ft 11 kts 314°
2026-04-21 19:32 34.87114 33.61101 20 ft 7 kts 311°
2026-04-21 19:32 34.87110 33.61057 20 ft 5 kts 226°
2026-04-21 19:32 34.87088 33.61031 20 ft 4 kts 224°
2026-04-21 19:32 34.87074 33.61014 22 ft 1 kts 225°
2026-04-21 19:33 34.87074 33.61013 21 ft 0 kts 225°